Content
SEND FEEDBACK

Daily
Averages
Monthly
Summary
United States of America

FORNEY, IDAHO


Home > North America > United States > Idaho
Elevation: 6810 feet     Latitude: 45 07N     Longitude: 114 21W

WEATHER
 
SELECT A DAY
Number of Records: 457,321;   Date Range: 1/1/95 - 10/1/14
 
SHARE

PRINT THIS DATA

[ ← Previous Day ]
WEATHER ALMANAC - JANUARY 31, 2013
[ Next Day → ]
[ °C ]   °F
Weather ElementAverageHighLow
Temperature35.7 °F41 °F (11:15 am)32 °F (2:55 am)
Dewpoint27.1 °F30.2 °F (3:55 pm)23 °F (3:35 am)
Humidity71.4 %87 % (8:35 pm)56 % (3:35 am)
Barometer30.17 in30.20 in (9:15 am)30.14 in (12:55 am)
Wind Speed1.4 mph8.1 mph (1:15 am)
Weather ElementAverage
Visibility10 mi
Wind DirectionNNE (36.3 °)

Weather ElementTotal
Precipitation---
Heating Degree Days28.5 (Base 65)
Averaged from 64 records on January 31, 2013
WEATHER CONDITIONS BREAKOUT
WIND DIRECTION BREAKOUT
WEATHER BY HOUR - JANUARY 31, 2013
[ °C ]   °F
Local TimeTemperatureDewpointHumidityBarometerVisibilityWind DirectionWind SpeedGust SpeedPrecipitationEventsConditions
12:35 AM33.8 °F24.8 °F70 %30.15 in10.0 miCalmMostly Cloudy
12:55 AM33.8 °F26.6 °F75 %30.14 in10.0 miEast (90°)4.6 mphMostly Cloudy
1:15 AM33.8 °F24.8 °F70 %30.15 in10.0 miESE (110°)8.1 mphMostly Cloudy
1:35 AM33.8 °F24.8 °F70 %30.15 in10.0 miESE (120°)5.8 mphMostly Cloudy
1:55 AM35.6 °F24.8 °F65 %30.16 in10.0 miCalmMostly Cloudy
2:15 AM35.6 °F24.8 °F65 %30.16 in10.0 miNW (310°)8.1 mphOvercast
2:35 AM35.6 °F24.8 °F65 %30.16 in10.0 miCalmMostly Cloudy
2:55 AM32.0 °F24.8 °F75 %30.16 in10.0 miWSW (240°)6.9 mphMostly Cloudy
3:15 AM35.6 °F24.8 °F65 %30.17 in10.0 miENE (60°)3.5 mphMostly Cloudy
3:35 AM37.4 °F23.0 °F56 %30.17 in10.0 miCalmMostly Cloudy
3:55 AM35.6 °F24.8 °F65 %30.18 in10.0 miCalmOvercast
4:15 AM35.6 °F24.8 °F65 %30.17 in10.0 miSE (130°)6.9 mphOvercast
4:35 AM37.4 °F24.8 °F60 %30.17 in10.0 miCalmOvercast
4:55 AM37.4 °F24.8 °F60 %30.17 in10.0 miEast (100°)3.5 mphOvercast
5:35 AM37.4 °F24.8 °F60 %30.18 in10.0 miSSE (160°)3.5 mphOvercast
5:55 AM37.4 °F24.8 °F60 %30.17 in10.0 miSE (140°)5.8 mphOvercast
6:15 AM35.6 °F24.8 °F65 %30.17 in10.0 miCalmOvercast
6:35 AM35.6 °F24.8 °F65 %30.17 in10.0 miCalmOvercast
6:55 AM35.6 °F24.8 °F65 %30.18 in10.0 miCalmOvercast
7:15 AM35.6 °F24.8 °F65 %30.18 in10.0 miCalmOvercast
7:35 AM35.6 °F24.8 °F65 %30.18 in10.0 miCalmOvercast
7:55 AM33.8 °F24.8 °F70 %30.18 in10.0 miCalmOvercast
8:15 AM35.6 °F24.8 °F65 %30.18 in10.0 miCalmOvercast
8:35 AM33.8 °F24.8 °F70 %30.18 in10.0 miCalmOvercast
8:55 AM33.8 °F26.6 °F75 %30.19 in10.0 miCalmOvercast
9:15 AM33.8 °F26.6 °F75 %30.20 in10.0 miCalmOvercast
9:35 AM35.6 °F26.6 °F70 %30.20 in10.0 miCalmOvercast
9:55 AM35.6 °F24.8 °F65 %30.20 in10.0 miESE (110°)4.6 mphOvercast
10:15 AM37.4 °F28.4 °F70 %30.20 in10.0 miCalmOvercast
10:35 AM39.2 °F28.4 °F65 %30.20 in10.0 miCalmOvercast
10:55 AM39.2 °F28.4 °F65 %30.20 in10.0 miCalmOvercast
11:15 AM41.0 °F26.6 °F57 %30.20 in10.0 miCalmOvercast
11:35 AM39.2 °F28.4 °F65 %30.20 in10.0 miCalmOvercast
11:55 AM39.2 °F28.4 °F65 %30.20 in10.0 miCalmOvercast
12:35 PM37.4 °F28.4 °F70 %30.19 in10.0 miCalmOvercast
12:55 PM37.4 °F28.4 °F70 %30.19 in10.0 miCalmOvercast
1:15 PM37.4 °F28.4 °F70 %30.19 in10.0 miNNE (20°)3.5 mphOvercast
1:35 PM37.4 °F26.6 °F65 %30.19 in10.0 miCalmOvercast
1:55 PM37.4 °F28.4 °F70 %30.19 in10.0 miSE (140°)3.5 mphOvercast
2:15 PM37.4 °F28.4 °F70 %30.18 in10.0 miCalmOvercast
2:35 PM37.4 °F28.4 °F70 %30.17 in10.0 miCalmOvercast
3:15 PM37.4 °F28.4 °F70 %30.18 in10.0 miCalmOvercast
3:35 PM39.2 °F28.4 °F65 %30.17 in10.0 miCalmOvercast
3:55 PM37.4 °F30.2 °F75 %30.17 in10.0 miCalmOvercast
4:15 PM37.4 °F28.4 °F70 %30.17 in10.0 miCalmOvercast
4:35 PM37.4 °F28.4 °F70 %30.17 in10.0 miCalmOvercast
5:15 PM35.6 °F30.2 °F81 %30.17 in10.0 miCalmOvercast
5:35 PM35.6 °F28.4 °F75 %30.17 in10.0 miCalmMostly Cloudy
5:55 PM35.6 °F28.4 °F75 %30.17 in10.0 miCalmMostly Cloudy
6:15 PM33.8 °F28.4 °F81 %30.17 in10.0 miSE (130°)4.6 mphOvercast
6:35 PM33.8 °F28.4 °F81 %30.17 in10.0 miSSE (150°)3.5 mphOvercast
6:55 PM33.8 °F28.4 °F81 %30.16 in10.0 miCalmOvercast
7:35 PM35.6 °F28.4 °F75 %30.17 in10.0 miESE (110°)3.5 mphOvercast
8:15 PM33.8 °F28.4 °F81 %30.17 in10.0 miCalmOvercast
8:35 PM33.8 °F30.2 °F87 %30.16 in10.0 miCalmOvercast
8:55 PM33.8 °F30.2 °F87 %30.16 in10.0 miCalmOvercast
9:15 PM33.8 °F30.2 °F87 %30.16 in10.0 miCalmOvercast
9:35 PM32.0 °F28.4 °F87 %30.16 in10.0 miCalmOvercast
9:55 PM33.8 °F30.2 °F87 %30.16 in10.0 miSE (130°)4.6 mphOvercast
10:15 PM32.0 °F28.4 °F87 %30.15 in9.0 miCalmOvercast
10:35 PM33.8 °F30.2 °F87 %30.14 in10.0 miCalmOvercast
11:15 PM32.0 °F28.4 °F87 %30.14 in10.0 miENE (70°)3.5 mphOvercast
11:35 PM33.8 °F28.4 °F81 %30.14 in10.0 miCalmOvercast
11:55 PM33.8 °F28.4 °F81 %30.14 in8.0 miCalmOvercast
Hourly data recorded from KSMN, located miles away from Forney, Idaho







STORIES FROM OUR PARTNERS